TimeMDT,TemperatureF,Dew PointF,Humidity,Sea Level PressureIn,VisibilityMPH,Wind Direction,Wind SpeedMPH,Gust SpeedMPH,PrecipitationIn,Events,Conditions,WindDirDegrees,DateUTC
12:53 AM,72.0,39.0,30,29.93,10.0,SE,8.1,-,N/A,,Clear,130,2013-08-29 06:53:00
1:53 AM,66.9,41.0,39,29.95,10.0,Calm,Calm,-,N/A,,Clear,0,2013-08-29 07:53:00
2:53 AM,66.0,37.0,34,29.95,10.0,SSW,4.6,-,N/A,,Clear,200,2013-08-29 08:53:00
3:53 AM,62.1,39.9,44,29.99,10.0,Calm,Calm,-,N/A,,Clear,0,2013-08-29 09:53:00
4:53 AM,64.0,37.0,37,30.00,10.0,SSW,4.6,-,N/A,,Clear,200,2013-08-29 10:53:00
5:53 AM,61.0,39.0,44,30.01,10.0,Calm,Calm,-,N/A,,Clear,0,2013-08-29 11:53:00
6:53 AM,62.1,39.0,43,30.03,10.0,Calm,Calm,-,N/A,,Clear,0,2013-08-29 12:53:00
7:53 AM,66.0,37.9,36,30.04,10.0,Calm,Calm,-,N/A,,Clear,0,2013-08-29 13:53:00
8:53 AM,70.0,43.0,38,30.05,10.0,Calm,Calm,-,N/A,,Clear,0,2013-08-29 14:53:00
9:53 AM,80.1,43.0,27,30.03,10.0,SE,6.9,-,N/A,,Clear,130,2013-08-29 15:53:00
10:53 AM,82.9,39.9,22,30.03,10.0,North,4.6,-,N/A,,Partly Cloudy,10,2013-08-29 16:53:00
11:53 AM,81.0,41.0,24,30.02,10.0,NNE,8.1,-,N/A,,Mostly Cloudy,20,2013-08-29 17:53:00
12:53 PM,84.0,39.9,21,30.00,10.0,SSE,4.6,-,N/A,,Clear,160,2013-08-29 18:53:00
1:53 PM,89.1,39.0,17,29.98,10.0,NE,8.1,-,N/A,,Clear,50,2013-08-29 19:53:00
2:53 PM,86.0,39.9,20,29.95,10.0,East,6.9,-,N/A,,Clear,80,2013-08-29 20:53:00
3:53 PM,88.0,39.0,18,29.94,10.0,Calm,Calm,-,N/A,,Partly Cloudy,0,2013-08-29 21:53:00
4:32 PM,86.0,46.4,25,30.16,10.0,NW,12.7,-,0.00,Thunderstorm,Partly Cloudy,320,2013-08-29 22:32:00
4:53 PM,86.0,46.0,25,29.94,10.0,NNW,11.5,-,0.00,Thunderstorm,Thunderstorm,330,2013-08-29 22:53:00
5:11 PM,84.2,44.6,25,30.16,10.0,NNW,9.2,-,N/A,,Clear,330,2013-08-29 23:11:00
5:53 PM,82.9,45.0,26,29.96,10.0,WNW,5.8,-,N/A,,Scattered Clouds,290,2013-08-29 23:53:00
6:53 PM,82.9,46.0,27,29.96,10.0,North,6.9,-,N/A,,Clear,360,2013-08-30 00:53:00
7:53 PM,79.0,48.0,34,29.98,10.0,WNW,3.5,-,N/A,,Clear,300,2013-08-30 01:53:00